Retour au catalogue

EUCLID

ActifScienceVLEO
NORAD 57209·PAYLOAD·🇪🇺 EU

Lancé Jul 1, 2023 depuis Cape Canaveral Space Force Station

Loading…

Prochains Passages (prochaines 24 heures)

TLE

PériméSource: Space-Track

Époque: Jul 1, 2023, 15:20 UTC

1 57209U 23092A   23182.63893389 -.00001140  36184-5  00000-0 0  9998
2 57209  36.9800 294.6018 0159500 140.4000 359.8200 16.04191078    04

Suivez EUCLID en temps réel avec AllMySat

Download on the App Store